Location: Besson
(46.4709°N, 3.2640°E)
Time: 07:57:01
(UTC+00:00)

Daily predictions for brighter satellites

Satellite Brightness Start Highest point End
(mag) Time Altitude Azimuth Time Altitude Azimuth Time Altitude Azimuth
H-2A R/B 2.1 17:10:58 10° NNE 17:15:21 66° ESE 17:19:36 10° S
Cosmos 1602 Rocket 4.4 17:12:35 10° SSE 17:16:20 29° E 17:20:08 10° NNE
CZ-2D R/B 4.1 17:13:05 10° SE 17:16:22 28° ENE 17:19:40 10° N
NOSS 2-1 (E) 3.5 17:17:09 10° SSW 17:20:17 40° ESE 17:23:33 10° NE
SJ 16-02 1.5 17:17:02 10° SSW 17:21:26 81° WNW 17:25:51 10° NNE
Cosmos 405 4.3 17:18:54 10° NNE 17:21:34 20° ENE 17:24:12 10° ESE
YAOGAN 1 3.8 17:19:42 10° ESE 17:22:52 20° ENE 17:26:03 10° NNE
Cosmos 1892 Rocket 4.2 17:19:28 10° SSW 17:23:44 61° WNW 17:28:03 10° N
NOAA 11 4.3 17:18:47 10° SSE 17:24:17 90° WSW 17:29:50 10° NNW
Meteor 2-10 Rocket 4.0 17:19:43 10° NNW 17:25:06 70° W 17:30:14 10° S
Helios 1A Rocket 4.4 17:25:03 10° ESE 17:27:45 17° ENE 17:30:28 10° NNE
Cosmos 923 Rocket 4.1 17:24:03 10° NNW 17:29:25 86° WSW 17:34:42 10° SSE
Cosmos 1898 Rocket 3.8 17:24:35 10° S 17:29:38 49° ESE 17:34:40 10° NNE
CZ-4C R/B 4.2 17:28:58 10° N 17:31:58 40° WNW 17:35:01 10° SW
Cosmos 1939 Rocket 2.9 17:28:08 10° SSE 17:32:10 64° ENE 17:36:11 10° N
CZ-4C R/B 4.2 17:29:02 10° NW 17:33:04 19° N 17:37:37 10° NNE
Okean O Rocket 1.9 17:29:14 10° S 17:33:39 74° WSW 17:38:05 10° NNW
H-2A R/B 3.6 17:29:39 10° S 17:33:40 49° W 17:37:52 10° NNW
Cosmos 1680 Rocket 3.5 17:28:50 10° NNW 17:34:06 81° ENE 17:39:18 10° SSE
Cosmos 1812 Rocket 3.9 17:30:46 10° N 17:34:58 43° ENE 17:39:07 10° SSE
Meteor 1-21 Rocket 4.2 17:29:47 10° S 17:35:16 70° E 17:40:50 10° NNE
Feng Yun 1-1 Rocket 4.2 17:33:08 10° SSE 17:38:33 64° ENE 17:44:07 10° N
Cosmos 2344 4.4 17:32:31 10° NW 17:41:30 63° NE 17:53:56 10° SE
Cosmos 1833 Rocket 3.0 17:36:27 10° NNW 17:41:48 42° NE 17:47:06 10° SE
SMAP 4.4 17:38:06 10° S 17:42:34 45° W 17:47:03 10° NNW
Aureole 3 2.8 17:39:27 10° NNW 17:42:34 76° W 17:45:32 10° S
Okean-O 3.3 17:39:42 10° SE 17:43:39 32° ENE 17:47:37 10° N
SKYMED 2 3.7 17:39:58 10° NNE 17:44:16 54° E 17:48:30 10° S
CZ-4B R/B 1.3 17:44:49 10° NNE 17:48:06 63° ESE 17:51:17 10° S
Cosmos 1937 Rocket 3.6 17:48:37 10° S 17:53:49 59° ESE 17:59:03 10° NNE
COSMOS 2406 3.3 17:50:16 10° NNW 17:56:01 60° ENE 18:01:41 10° SE
MOS 1 Rocket 3.1 17:51:54 10° NNE 17:56:09 57° E 18:00:24 10° S
NOSS 3-1 (C) 4.2 17:49:22 10° NW 17:56:55 85° SW 18:05:37 10° SSE
Cosmos 1703 3.2 17:53:33 10° S 17:57:26 88° W 18:01:20 10° N
Cosmos 1844 Rocket 3.8 17:53:29 10° SW 17:58:51 43° NW 18:04:15 10° NNE
H-2A R/B 2.3 17:54:17 10° SE 17:59:05 46° ENE 18:04:02 10° N
CZ-4 R/B 1.5 17:55:12 10° SE 17:59:05 48° ENE 18:02:55 10° N
Cosmos 2082 Rocket 2.8 17:54:08 10° NNW 17:59:20 34° NE 18:03:50 13° ESE
Cosmos 1627 Rocket 4.5 17:54:50 10° S 18:00:57 65° E 18:07:12 10° NNE
NOSS 2-1 (C) 3.6 18:06:09 10° SW 18:09:24 51° NW 18:11:52 17° NNE
Cosmos 1092 Rocket 4.0 18:04:27 10° S 18:10:38 88° W 18:16:49 10° N
Cosmos 1626 Rocket 4.3 18:06:30 10° SSW 18:10:49 56° WNW 18:15:14 10° N
USA 290 2.2 18:07:45 10° NNW 18:10:53 52° ENE 18:13:04 18° SE
Cosmos 2292 Rocket 4.4 18:08:14 10° SSE 18:12:21 27° E 18:12:42 26° E
Meteor 2-19 Rocket 4.5 18:08:06 10° S 18:14:07 60° E 18:20:11 10° NNE
IRS-1C Rocket 4.1 18:09:40 10° SSE 18:14:56 87° WSW 18:20:13 10° NNW
NOSS 2-1 (D) 3.8 18:12:10 10° WSW 18:15:21 44° NW 18:17:38 18° NNE
ATLAS 5 CENTAUR R/B 4.1 18:14:39 10° NW 18:16:35 12° N 18:18:36 10° NNE
USA 229 DEB 4.0 18:10:29 10° NW 18:17:50 85° SW 18:25:34 10° SSE
USA 229 4.0 18:10:35 10° NW 18:17:56 85° SW 18:25:39 10° SE
Cosmos 1346 Rocket 2.9 18:15:20 10° S 18:19:08 50° E 18:21:32 21° NNE
CSL-04 Rocket 3.9 18:15:31 10° SE 18:20:43 49° ENE 18:26:01 10° N
NOAA 15 4.5 18:16:38 10° SSE 18:21:53 77° ENE 18:27:10 10° NNW
ERS-2 1.9 18:20:15 13° NNE 18:23:32 81° ESE 18:27:09 10° SSW
TELKOM 3 4.3 18:23:44 10° WNW 18:25:11 30° NW 18:25:11 30° NW
Cosmos 2278 Rocket 2.1 18:20:38 10° SSW 18:26:15 68° ESE 18:30:40 17° NNE
HJ-1C 3.9 18:27:15 40° NNE 18:27:15 40° NNE 18:29:46 10° N
PSLV R/B 3.8 18:23:34 10° NNE 18:27:49 78° ESE 18:32:01 10° S
SL-08 RB Rocket 4.0 18:28:06 32° ESE 18:29:27 40° ENE 18:33:38 10° N
Cosmos 1340 3.7 18:26:32 10° SSW 18:30:09 45° WNW 18:33:46 10° N
COSMO-SKYMED 1 3.5 18:28:06 10° N 18:32:18 48° WNW 18:36:29 10° SW
NOSS 3-1 (A) 4.2 18:25:56 10° NW 18:33:29 81° SW 18:42:13 10° SSE
Meteor 2-15 4.4 18:28:17 10° N 18:34:29 90° W 18:40:38 10° S
Cosmos-2242 3.0 18:30:17 10° N 18:34:36 85° W 18:38:55 10° S
Aureole 3 Rocket 3.4 18:33:40 10° NNW 18:36:49 50° W 18:40:40 10° S
Cosmos 1758 Rocket 3.7 18:32:27 10° SSW 18:36:54 74° W 18:41:25 10° N
SJ-11-01 4.2 18:34:37 10° SSE 18:39:18 88° WSW 18:44:01 10° NNW
ISS -2.6 18:36:14 10° WNW 18:39:13 32° N 18:39:13 32° N
CZ-2C R/B 4.2 18:35:03 10° S 18:40:20 50° W 18:45:54 10° NNW
ATLAS 2AS CENTAUR R/B 4.5 18:34:55 10° NW 18:40:37 21° N 18:44:16 15° NE
Cosmos 1689 Rocket 2.5 18:43:53 56° WSW 18:43:53 56° WSW 18:46:26 10° SSW
Iridium 4 Rocket 4.0 18:38:32 10° N 18:43:53 60° W 18:48:44 10° SSW
SAR-Lupe-4 3.8 18:43:09 25° N 18:45:07 68° WNW 18:48:40 10° SSW
X-37B 1.5 18:44:10 10° W 18:47:04 43° SSW 18:47:04 43° SSW
ARGOS 3.0 18:42:10 10° SSE 18:47:32 85° ENE 18:52:57 10° NNW
Cosmos 2266 Rocket 4.1 18:44:00 10° SSE 18:49:55 47° E 18:55:47 10° NNE
Cosmos 1809 Rocket 4.5 18:45:30 10° SSE 18:51:24 53° E 18:57:23 10° NNE
USA 234 4.0 18:50:28 29° NE 18:52:44 37° N 18:58:37 10° NW
CZ-2C R/B 2.7 18:53:40 22° NNE 18:57:20 63° E 19:02:53 10° S
YAOGAN 1 3.6 18:54:30 10° S 18:58:40 45° W 19:02:51 10° NNW
Cosmos 1417 Rocket 4.5 18:52:59 10° N 18:59:14 85° W 19:05:32 10° S
SJ 16-02 4.3 18:59:19 10° WNW 19:00:47 11° NW 19:02:15 10° NNW
Helios 1A Rocket 3.7 18:58:28 10° S 19:02:31 52° W 19:06:35 10° NNW
Cosmos 1553 Rocket 4.3 18:56:11 10° NNW 19:02:33 71° W 19:08:49 10° S
Cosmos 1241 Rocket 4.5 19:00:21 10° SSW 19:06:42 61° ESE 19:07:48 54° ENE
Cosmos 468 4.4 19:08:24 10° NNW 19:13:41 89° WSW 19:14:33 64° SSE
Cosmos 2315 Rocket 4.1 19:12:16 10° N 19:17:23 52° NE 19:17:23 52° NE
Cosmos 2150 Rocket 3.9 19:13:20 10° SSW 19:18:00 73° S 19:18:00 73° S
Cosmos 44 Rocket 3.6 19:16:31 10° SSW 19:20:30 59° SSW 19:20:30 59° SSW
Meteor 2-21 4.2 19:15:39 10° S 19:21:42 77° E 19:27:52 10° NNE
Cosmos 494 Rocket 4.4 19:17:19 10° NNW 19:21:16 52° N 19:21:16 52° N
Cosmos 883 Rocket 4.3 19:16:28 10° N 19:22:42 76° E 19:23:18 70° SE
CZ-4C R/B 4.2 19:19:18 10° NNW 19:24:10 21° NNE 19:24:19 21° NNE
Cosmos 1048 Rocket 4.0 19:19:04 10° NNW 19:24:12 74° WSW 19:24:34 71° SW
Cosmos 1833 Rocket 4.2 19:20:36 10° NW 19:25:36 34° WSW 19:30:35 10° SSW
Cosmos 1655 Rocket 4.0 19:21:43 10° SSW 19:27:57 76° W 19:34:12 10° N
S3M 4.3 19:22:25 10° NNW 19:28:27 64° W 19:34:29 10° S
Meteor 2-14 Rocket 4.3 19:24:38 10° S 19:30:42 86° E 19:31:02 80° NNE
CZ-4 R/B 4.4 19:31:54 10° SW 19:34:22 16° W 19:36:49 10° NW
H-2A R/B 4.1 19:34:36 10° SSW 19:38:44 25° W 19:42:59 10° NW
Cosmos 2082 Rocket 3.2 19:38:09 10° NW 19:43:34 45° WSW 19:45:48 30° SSW
Cosmos 2278 Rocket 4.1 20:06:17 10° W 20:10:52 24° NW 20:12:34 21° NNW
ATLAS 2AS CENTAUR R/B 4.4 20:27:34 10° NNW 20:31:41 25° N 20:31:41 25° N
USA 234 4.4 20:37:48 36° NW 20:37:48 36° NW 20:41:33 10° NW
